Simultaneous Nadir Overpasses (SNOs) Predictions

Prediction of SNOs between GOES-16 and NPP Satellite Orbit:

Table of predicted SNOs for the next 14.0 days since TLE Epoch: 12/14/2018
Index Date Time (GOES-16) GOES-16 Lat,Lon NPP Lat,Lon Distance(km) Time Diff (sec)
1 12/17/2018 06:23:52 -0.00, -75.15 -0.05, -75.04 12.98 80
2 12/19/2018 18:29:43 -0.01, -75.17 -0.16, -75.81 73.61 80
3 12/20/2018 18:08:18 -0.00, -75.18 0.87, -71.28 443.55 80
4 12/22/2018 06:32:45 0.01, -75.19 0.32, -76.55 155.55 80
5 12/23/2018 06:11:21 0.01, -75.20 -0.71, -72.03 361.53 80
6 12/24/2018 18:35:57 -0.01, -75.21 -0.46, -77.33 241.67 80
7 12/25/2018 18:14:32 -0.01, -75.22 0.52, -72.79 275.72 80
8 12/27/2018 06:39:00 0.01, -75.24 0.61, -78.08 322.59 80
9 12/28/2018 06:17:35 0.00, -75.25 -0.36, -73.54 195.21 80




NCC Satellite Simultaneous Nadir Overpasses (SNOs) Prediction Service
